Wind_Speed
33 32 33 35 37 39 40 44 45 45 46 47 49 54 58 64 72 79 78 88 92 92 99 97 95 96 94 91 90 93 88 92 89 91 93 90 93 93 91 93 95 96 101 106 102
29 28 28 29 30 33 35 39 42 43 45 46 47 50 51 55 60 69 71 74 85 92 93 96 92 92 93 94 96 92 93 94 93 93 93 94 95 96 98 101 99 103 105 106 95
25 25 27 28 27 32 35 38 40 41 43 44 45 46 49 52 52 53 59 63 69 79 82 86 89 88 94 94 96 95 93 90 93 96 98 99 102 102 105 104 108 105 100 84 79
23 23 25 27 29 32 33 35 36 38 39 40 42 43 45 46 46 48 51 56 61 66 75 80 86 89 88 88 89 89 90 89 90 96 92 96 102 95 93 92 86 92 85 79 68
22 24 25 26 28 29 30 31 31 34 36 38 39 39 40 41 42 45 47 50 53 57 61 68 78 87 85 82 83 82 85 87 90 90 92 86 85 91 86 81 81 72 67 62 64
23 24 24 27 28 27 27 27 28 30 34 34 36 35 35 35 37 39 42 46 50 53 56 58 61 63 68 67 71 73 80 81 82 85 76 73 78 82 69 67 64 63 54 47 36
24 25 25 25 25 25 25 27 28 30 30 32 30 31 32 32 34 36 37 37 38 42 46 47 50 53 54 57 59 62 63 60 65 70 77 80 73 63 61 55 53 50 37 26 25
26 27 26 26 27 27 27 27 27 28 28 27 27 25 23 23 23 23 24 26 29 32 35 36 38 39 41 44 47 50 51 54 53 53 53 62 63 53 43 42 34 29 26 27 26
27 30 30 30 28 27 27 26 26 26 24 22 22 22 21 20 22 23 26 29 31 33 35 35 36 38 38 39 38 36 35 31 33 32 32 29 28 26 29 26 25 24 26 29 29
31 32 31 29 28 27 28 27 26 22 21 21 23 22 25 24 24 25 25 25 28 28 30 29 28 28 27 24 23 20 18 19 18 20 21 24 22 20 22 22 23 26 28 31 33
35 33 33 33 32 30 28 27 26 23 25 24 22 23 22 20 19 16 16 16 15 15 17 16 17 18 17 15 16 17 18 16 17 17 19 19 19 21 22 24 26 29 33 35 35
37 37 36 34 30 26 26 27 27 27 26 23 19 17 14 12 11 11 11 12 14 14 15 15 15 15 16 16 17 17 17 16 17 17 18 20 22 25 28 29 31 33 32 34 32
38 34 33 32 31 30 29 28 28 25 23 18 13 12 9 9 10 10 11 11 11 13 15 16 16 17 18 18 18 18 18 20 19 20 23 25 25 29 30 30 29 30 33 30 30
32 32 32 32 31 30 29 25 22 22 18 15 13 13 13 13 11 9 8 9 9 11 13 17 19 22 22 22 21 21 23 24 24 24 23 25 27 31 30 32 31 32 30 30 31
32 33 33 31 28 26 24 23 22 19 16 15 17 17 15 12 10 7 6 7 9 11 12 13 17 21 23 24 25 25 26 27 27 27 28 28 32 23 32 33 31 30 31 32 35
33 32 31 28 26 27 25 22 19 18 18 19 18 15 13 9 7 7 8 9 11 11 12 14 16 18 21 24 27 29 29 30 31 34 33 31 35 24 31 29 30 33 35 37 39
32 30 29 28 30 28 25 22 21 22 20 16 14 13 11 9 8 7 8 10 11 11 11 11 12 13 14 18 23 26 30 32 33 31 32 33 35 30 32 32 33 34 37 40 43
33 32 32 31 30 27 24 22 21 19 15 15 16 15 14 12 7 6 4 3 4 5 3 5 8 10 11 12 15 19 21 27 32 34 34 36 36 34 32 33 35 37 41 43 47
35 33 31 30 28 27 25 23 21 18 18 18 17 14 11 9 6 4 2 2 2 4 5 6 6 8 9 9 11 15 16 17 20 26 32 37 38 33 36 37 39 42 46 44 45
37 34 30 29 31 29 26 23 20 19 18 17 14 10 10 6 2 2 2 1 1 2 3 4 7 10 12 12 11 12 12 15 18 21 25 29 35 30 36 36 37 39 42 43 47
36 33 32 30 30 29 27 23 19 18 16 13 11 11 10 7 5 5 4 3 3 4 6 8 10 13 15 15 16 17 18 20 20 22 23 28 35 33 33 35 39 42 46 49 55
35 33 32 32 31 30 26 23 17 15 14 13 13 13 10 8 7 6 7 7 7 7 9 11 13 15 18 20 20 20 22 23 26 29 32 33 39 37 38 37 42 46 50 54 55
36 35 31 31 30 29 26 24 17 15 15 14 15 14 11 10 10 9 9 9 11 13 14 16 18 20 22 24 26 26 25 26 27 29 32 34 39 37 41 44 48 49 53 54 58
39 35 33 31 30 29 26 23 18 17 17 17 17 16 15 14 13 13 13 15 17 18 19 21 24 25 27 28 27 27 29 32 33 35 34 38 38 44 45 45 49 52 55 60 63
41 37 34 33 32 30 26 23 21 20 20 20 20 19 19 19 17 17 19 20 21 21 23 24 26 29 31 34 37 34 33 35 36 38 37 43 45 46 46 50 52 54 59 64 68
43 40 35 35 33 31 28 26 25 25 24 24 23 23 22 20 20 20 22 23 24 26 26 27 30 34 39 39 42 43 41 39 39 39 40 43 46 49 49 52 57 59 66 70 74
42 40 38 36 34 32 29 27 26 27 27 27 26 25 24 24 24 25 26 27 29 30 32 33 34 35 39 42 47 44 42 42 41 41 45 46 47 49 53 57 62 65 72 74 77
Wind_Direction
261 252 246 242 238 235 232 230 232 230 230 231 231 230 229 230 231 231 231 233 232 235 236 237 240 242 243 241 242 246 249 252 255 257 259 262 266 267 269 272 273 274 277 282 287
257 246 240 236 231 225 224 223 224 224 223 225 225 225 226 228 232 233 234 234 235 237 240 240 242 243 245 247 246 245 251 253 255 257 259 259 264 268 272 271 276 277 280 283 286
250 238 231 226 223 217 219 219 220 220 218 219 221 221 223 225 227 226 228 233 234 238 241 242 243 246 248 250 251 250 253 256 257 258 262 263 265 269 273 276 277 279 282 282 284
237 223 217 212 209 211 213 213 213 213 213 214 217 219 220 222 222 223 224 228 234 236 241 244 247 248 249 247 249 251 254 257 261 261 263 265 266 270 274 277 281 282 282 279 284
219 210 202 200 201 204 207 205 206 207 208 211 213 214 218 220 219 223 227 229 230 233 237 242 247 249 253 253 252 252 252 254 259 262 266 271 275 273 274 278 281 281 281 284 283
202 198 193 191 193 195 197 198 198 202 204 205 209 214 216 217 220 224 229 231 235 239 241 245 248 252 253 252 252 255 254 256 262 264 267 267 271 274 279 275 280 281 279 282 279
192 188 186 186 192 192 195 193 191 193 198 202 207 207 213 215 219 223 231 236 241 244 248 252 256 257 256 256 257 257 256 259 260 262 263 263 268 272 274 280 279 276 280 282 287
184 182 180 179 180 185 186 187 188 190 189 193 197 200 204 212 217 220 224 227 234 239 241 244 246 247 246 246 248 249 250 252 255 255 256 265 266 270 274 275 272 277 277 283 282
168 167 167 173 175 175 175 177 176 174 176 179 182 187 192 190 193 198 206 214 218 222 226 231 234 236 236 240 238 239 243 244 249 252 259 263 261 263 265 269 272 276 280 284 291
161 160 162 161 163 162 167 167 166 170 170 172 174 176 179 186 191 196 202 209 219 225 229 233 237 239 240 240 245 247 248 246 247 249 254 260 265 264 271 273 275 278 281 284 284
157 155 153 155 158 163 163 165 164 165 164 159 164 167 178 184 191 200 206 215 224 232 238 237 243 246 244 245 247 251 251 246 250 255 263 267 265 271 271 270 270 272 284 288 291
149 151 155 157 159 161 162 159 161 157 158 163 173 173 178 185 196 204 211 220 225 232 241 245 248 249 253 255 256 257 251 251 248 254 259 264 261 265 265 272 277 279 283 287 288
153 156 158 157 154 155 154 158 158 163 172 168 172 174 185 189 196 201 214 227 232 236 241 246 248 253 250 245 244 244 245 251 246 249 251 256 257 260 265 270 269 277 283 284 289
156 157 156 155 158 157 160 163 169 174 171 167 171 172 174 173 182 196 219 238 249 252 251 251 251 247 250 251 247 245 244 242 240 241 247 254 258 262 265 269 274 277 277 281 285
162 162 163 163 162 165 168 166 167 167 167 172 171 173 173 180 191 197 214 225 235 242 251 261 256 253 251 246 247 242 242 245 249 251 253 258 265 255 271 270 272 274 277 279 278
165 164 166 169 168 169 172 172 176 174 174 176 179 182 188 189 195 222 246 257 260 270 272 267 263 260 258 256 253 250 249 250 253 254 256 260 267 278 273 273 272 274 277 278 283
168 170 170 175 176 174 174 177 176 171 177 173 173 182 191 200 209 239 259 276 293 306 306 296 298 299 288 268 260 263 260 256 258 262 262 266 271 279 276 276 277 280 282 285 288
173 175 177 179 180 174 179 180 175 177 174 181 186 193 197 202 234 253 274 289 298 322 335 323 318 320 313 297 282 281 276 269 263 261 265 269 274 279 284 283 283 285 285 288 292
178 180 180 182 184 185 187 186 179 180 182 185 187 197 210 225 238 234 236 292 360 24 30 28 20 13 1 343 317 301 296 286 272 266 266 270 272 281 280 281 283 286 290 290 295
183 183 187 192 192 189 189 188 186 187 184 189 197 203 208 209 207 180 191 239 17 360 7 360 355 348 345 343 342 337 327 311 301 291 289 285 282 284 281 286 286 288 289 294 297
187 190 194 195 189 190 190 190 190 184 189 200 204 206 209 210 224 217 214 243 277 297 311 309 313 315 312 308 309 310 307 303 299 296 293 292 290 290 289 290 289 287 289 289 292
189 195 196 193 188 188 192 192 189 191 197 209 215 214 208 213 224 232 236 253 277 298 298 299 303 305 303 304 303 299 299 300 297 292 290 287 286 293 295 293 291 293 294 296 299
195 199 197 193 190 192 196 199 199 205 210 220 222 214 212 222 236 249 264 271 278 282 288 295 300 305 307 309 308 303 299 297 292 290 288 285 289 289 294 296 295 296 298 298 299
201 200 198 194 197 198 202 203 209 216 219 225 228 226 229 238 246 257 272 277 280 288 294 298 301 303 305 304 299 296 298 294 291 287 291 290 289 294 293 295 297 300 301 303 304
200 200 199 199 204 205 207 210 218 223 224 230 233 236 242 247 254 267 274 278 283 288 291 296 301 304 303 305 304 302 300 293 291 286 285 292 292 293 295 297 301 306 305 304 305
199 201 201 205 206 209 213 216 220 223 227 232 238 245 252 259 267 275 281 287 289 291 294 296 300 304 304 306 304 305 303 296 294 293 288 292 295 297 297 300 304 306 306 308 309
201 204 206 209 211 215 220 225 230 232 235 241 247 251 255 261 266 274 279 284 289 292 294 296 299 304 305 304 303 305 303 299 297 298 295 296 299 298 299 301 302 305 304 305 306
Height
10611 10612 10613 10617 10622 10628 10634 10639 10645 10651 10658 10664 10671 10677 10683 10690 10701 10713 10722 10731 10739 10743 10754 10761 10767 10772 10776 10782 10786 10787 10783 10789 10792 10793 10792 10792 10793 10793 10791 10790 10788 10782 10776 10767 10762
10602 10603 10606 10611 10617 10622 10627 10633 10639 10645 10652 10657 10664 10670 10678 10686 10696 10705 10714 10722 10727 10734 10742 10751 10756 10760 10764 10767 10772 10776 10775 10781 10779 10779 10780 10781 10782 10782 10780 10777 10772 10766 10761 10753 10748
10595 10597 10602 10608 10612 10618 10622 10628 10635 10641 10647 10653 10659 10667 10673 10680 10689 10698 10704 10710 10716 10723 10729 10735 10742 10746 10753 10756 10762 10763 10767 10767 10767 10769 10769 10770 10770 10769 10763 10760 10756 10750 10744 10738 10729
10590 10594 10599 10603 10609 10613 10618 10624 10630 10637 10643 10650 10656 10662 10669 10676 10684 10690 10696 10700 10707 10714 10720 10725 10729 10735 10743 10747 10750 10753 10755 10753 10754 10756 10756 10757 10757 10752 10746 10744 10741 10736 10729 10725 10718
10586 10591 10595 10601 10606 10610 10616 10622 10628 10634 10639 10646 10652 10659 10666 10673 10679 10685 10691 10696 10702 10706 10711 10717 10722 10727 10732 10736 10737 10740 10741 10742 10742 10743 10744 10746 10745 10742 10738 10733 10728 10723 10719 10715 10712
10583 10588 10593 10599 10603 10608 10614 10620 10626 10631 10637 10644 10650 10657 10664 10670 10676 10682 10686 10691 10696 10699 10704 10707 10712 10717 10722 10723 10725 10727 10728 10731 10734 10733 10733 10732 10732 10729 10725 10723 10719 10714 10709 10707 10705
10582 10587 10592 10597 10603 10608 10613 10618 10625 10631 10636 10643 10650 10656 10662 10668 10673 10678 10683 10687 10690 10692 10696 10699 10703 10707 10709 10711 10713 10715 10716 10716 10718 10720 10722 10724 10720 10716 10714 10710 10709 10706 10703 10700 10697
10582 10587 10592 10598 10602 10607 10612 10619 10625 10631 10637 10644 10650 10656 10661 10665 10670 10674 10678 10681 10683 10686 10689 10693 10695 10697 10699 10701 10703 10705 10706 10708 10708 10709 10708 10707 10704 10702 10702 10701 10700 10697 10696 10695 10692
10583 10587 10592 10598 10603 10609 10615 10621 10626 10633 10638 10644 10649 10654 10659 10663 10667 10671 10674 10676 10679 10681 10684 10686 10689 10691 10692 10693 10694 10694 10695 10697 10698 10698 10696 10696 10696 10694 10694 10693 10694 10691 10690 10689 10686
10584 10589 10595 10600 10606 10611 10617 10622 10628 10634 10639 10644 10649 10654 10658 10662 10666 10669 10671 10674 10676 10678 10680 10683 10685 10686 10686 10686 10687 10687 10688 10689 10690 10691 10690 10690 10689 10688 10687 10687 10688 10687 10685 10683 10681
10587 10592 10597 10603 10608 10613 10618 10624 10630 10636 10640 10645 10650 10655 10659 10661 10664 10665 10668 10670 10672 10674 10677 10678 10679 10680 10680 10680 10682 10682 10683 10684 10685 10685 10685 10683 10683 10682 10683 10684 10684 10682 10680 10677 10674
10589 10595 10601 10606 10611 10616 10621 10628 10633 10636 10641 10646 10651 10655 10658 10659 10661 10663 10666 10668 10670 10672 10673 10673 10673 10674 10674 10675 10676 10676 10678 10680 10680 10680 10679 10678 10678 10678 10679 10678 10677 10676 10674 10670 10666
10594 10599 10604 10609 10614 10619 10624 10629 10633 10638 10642 10646 10650 10653 10655 10658 10660 10662 10664 10665 10667 10668 10668 10669 10669 10669 10670 10671 10672 10673 10674 10674 10675 10675 10675 10674 10674 10673 10673 10672 10671 10669 10666 10663 10661
10597 10601 10606 10611 10616 10621 10626 10631 10634 10638 10642 10646 10650 10653 10656 10658 10660 10662 10663 10665 10666 10666 10667 10667 10667 10667 10667 10668 10668 10669 10669 10669 10670 10670 10670 10668 10668 10666 10666 10665 10663 10662 10659 10656 10654
10599 10604 10609 10614 10619 10623 10627 10631 10635 10639 10644 10647 10651 10653 10656 10659 10660 10661 10662 10663 10663 10664 10663 10664 10664 10664 10665 10664 10664 10665 10665 10666 10665 10665 10664 10663 10660 10665 10659 10657 10656 10654 10652 10649 10645
10600 10606 10611 10615 10620 10625 10629 10633 10637 10641 10645 10648 10651 10653 10656 10657 10659 10659 10660 10660 10660 10661 10661 10660 10660 10660 10660 10660 10661 10661 10661 10661 10660 10659 10659 10658 10654 10654 10654 10650 10649 10648 10644 10641 10636
10602 10607 10612 10617 10622 10626 10630 10635 10638 10641 10644 10648 10650 10652 10655 10657 10658 10658 10658 10658 10658 10657 10657 10656 10656 10655 10655 10655 10655 10655 10655 10655 10654 10653 10652 10651 10649 10648 10646 10645 10642 10641 10637 10632 10628
10603 10608 10613 10618 10622 10626 10631 10635 10639 10641 10645 10648 10650 10652 10654 10655 10656 10657 10657 10656 10656 10655 10654 10654 10653 10652 10651 10650 10649 10649 10648 10648 10648 10647 10646 10645 10643 10643 10639 10636 10634 10631 10627 10623 10619
10603 10608 10613 10618 10622 10627 10631 10635 10639 10642 10645 10647 10649 10651 10653 10654 10654 10655 10655 10654 10654 10654 10653 10653 10652 10651 10649 10648 10646 10645 10644 10642 10642 10641 10640 10638 10637 10634 10633 10630 10627 10623 10617 10614 10610
10601 10607 10612 10617 10622 10626 10631 10635 10639 10641 10644 10646 10648 10650 10651 10652 10653 10653 10653 10654 10654 10654 10653 10652 10651 10650 10648 10647 10646 10644 10642 10640 10638 10637 10634 10632 10627 10630 10625 10623 10619 10613 10608 10605 10599
10600 10605 10610 10615 10620 10625 10630 10634 10637 10640 10642 10644 10646 10648 10649 10650 10651 10651 10652 10653 10653 10653 10652 10651 10650 10648 10647 10645 10644 10642 10641 10638 10635 10632 10630 10625 10617 10619 10619 10616 10611 10606 10600 10596 10590
10598 10604 10609 10613 10618 10623 10628 10632 10635 10638 10640 10642 10644 10646 10647 10648 10649 10649 10650 10651 10651 10651 10650 10649 10648 10646 10644 10642 10641 10639 10637 10633 10630 10627 10622 10620 10611 10611 10608 10606 10601 10595 10590 10583 10578
10596 10601 10606 10611 10616 10621 10626 10630 10632 10635 10638 10640 10642 10643 10645 10646 10646 10647 10648 10648 10648 10648 10647 10646 10644 10642 10640 10639 10635 10633 10632 10628 10624 10620 10615 10612 10606 10606 10599 10594 10590 10586 10580 10574 10568
10593 10599 10604 10608 10614 10619 10623 10626 10629 10632 10634 10637 10639 10641 10642 10643 10644 10644 10644 10645 10644 10644 10642 10640 10638 10637 10634 10633 10631 10629 10625 10621 10617 10612 10609 10602 10601 10594 10591 10588 10582 10576 10571 10562 10554
10590 10596 10601 10606 10611 10615 10619 10623 10626 10628 10631 10633 10636 10637 10638 10639 10640 10640 10640 10639 10639 10638 10637 10635 10633 10630 10627 10624 10621 10619 10617 10613 10609 10605 10601 10594 10590 10586 10582 10575 10570 10566 10555 10548 10540
10586 10592 10597 10602 10607 10611 10615 10619 10621 10624 10626 10629 10631 10633 10634 10635 10635 10634 10634 10634 10633 10632 10631 10630 10628 10624 10619 10616 10611 10609 10606 10602 10599 10595 10591 10587 10581 10576 10571 10566 10557 10551 10540 10531 10521
10583 10589 10594 10599 10603 10607 10611 10614 10617 10619 10622 10624 10626 10628 10629 10629 10629 10628 10628 10628 10627 10626 10624 10623 10621 10618 10613 10608 10601 10601 10596 10591 10587 10585 10580 10576 10572 10566 10559 10553 10545 10540 10525 10517 10505